Terminal Aerodrome Forecast
Issued by NWS

Home | Current Version | Previous Version | Text Only | Print | Product List | Glossary On
Versions: 1 2 3 4 5 6 7 8 9 10 11 12 13 14 15 16 17 18 19 20 21 22 23 24 25 26 27 28 29 30 31 32 33 34 35
000
FTAK31 PANC 222337
TAFAVD
TAF
PAVD 222337Z 2300/2324 VRB03KT P6SM BKN050 OVC100
      TEMPO 2300/2303 5SM -SN OVC025
     FM230300 00000KT P6SM -SHSN OVC025
     FM230900 00000KT P6SM BKN050
     FM231800 00000KT P6SM BKN150
      AMD LTD TO CLD VIS AND WIND=

USA.gov is the U.S. government's official web portal to all federal, state and local government web resources and services.